Location: Hawks Ness
(60.2333°N, 1.1667°W)
Time: 19:17:49
(UTC+00:00)

Cosmos 1726 - Pass Details

Date: 01 February 2020
Orbit: 482 x 500 km, 82.5° (Epoch: 19 February)

Event Time Altitude Azimuth Distance (km) Brightness Sun altitude
Exits shadow 03:48:43 11° 36° (NE) 1,590 5.3 -33.0°
Drops below altitude 10° 03:48:54 10° 34° (NE) 1,655 5.4 -33.0°
Sets 03:51:19 0° 21° (NNE) 2,565 6.3 -32.8°
